Houghton Lake, MI

3:07 PM EST on November 18, 2017 (GMT -0500)
Roscommon County

Weather History for KHTL - December, 2012

Change the Weather History Date:

Monday, December 24, 2012

  Actual Average Record
Temperature  
Mean Temperature 23 °F 21 °F  
Max Temperature 24 °F 28 °F 56 °F (2015)
Min Temperature 21 °F 15 °F -15 °F (1969)
Degree Days  
Heating Degree Days 42 44  
Month to date heating degree days 793 963  
Since 1 July heating degree days 2508 2846  
Moisture  
Dew Point 17 °F    
Average Humidity 81    
Maximum Humidity 88    
Minimum Humidity 74    
Precipitation  
Precipitation T in 0.05 in 0.97 in (1979)
Month to date precipitation 2.87 1.32  
Year to date precipitation 33.28 28.42  
Snow  
Snow T in 0.50 in 4.50 in (1965)
Month to date snowfall 12.9 12.3  
Since 1 July snowfall 20.1 21.4  
Snow Depth 5.00 in    
Sea Level Pressure  
Sea Level Pressure 30.00 in    
Wind  
Wind Speed 3 mph (NE)    
Max Wind Speed 8 mph    
Max Gust Speed 12 mph    
Visibility 10 miles    
Events Snow    
T = Trace of Precipitation, MM = Missing Value Source: NWS Daily Summary

Daily Weather History Graph

Daily Weather History Graph

Search for Another Location

Airport or City:

Trip Planner

Search our weather history database for the weather conditions in past years. The results will help you decide how hot, cold, wet, or windy it might be!

Date:

Astronomy

Dec. 24, 2012 Rise Set
Actual Time 8:13 AM EST 5:04 PM EST
Civil Twilight 7:39 AM EST 5:37 PM EST
Nautical Twilight 7:02 AM EST 6:14 PM EST
Astronomical Twilight 6:27 AM EST 6:49 PM EST
Moon 2:33 PM EST (12/24) 4:47 AM EST (12/24)
Length of Visible Light 9h 57m
Length of Day
8h 51m
Waxing Gibbous, 88% of the Moon is Illuminated
Dec 24
Waxing Gibbous
Dec 28
Full
Jan 4
Last Quarter
Jan 11
New
Jan 18
First Quarter

Hourly Weather History & Observations

Time (EST) Temp. Windchill Dew Point Humidity Pressure Visibility Wind Dir Wind Speed Gust Speed Precip Events Conditions
12:53 AM 23.0 °F - 17.1 °F 78% 30.02 in 10.0 mi Calm Calm - N/A   Overcast
1:53 AM 23.0 °F 17.0 °F 16.0 °F 74% 30.04 in 10.0 mi WNW 4.6 mph - N/A   Overcast
2:53 AM 23.0 °F 18.4 °F 15.1 °F 72% 30.05 in 10.0 mi North 3.5 mph - N/A   Overcast
3:53 AM 23.0 °F - 16.0 °F 74% 30.03 in 10.0 mi Calm Calm - N/A   Overcast
4:53 AM 21.9 °F 15.7 °F 17.1 °F 82% 30.00 in 10.0 mi East 4.6 mph - N/A   Overcast
5:53 AM 21.9 °F 17.2 °F 17.1 °F 82% 29.99 in 10.0 mi East 3.5 mph - N/A   Overcast
6:53 AM 21.9 °F - 17.1 °F 82% 30.01 in 10.0 mi Calm Calm - N/A   Overcast
7:53 AM 21.0 °F 13.4 °F 16.0 °F 81% 30.01 in 10.0 mi SSE 5.8 mph - N/A   Overcast
8:53 AM 21.0 °F 14.6 °F 16.0 °F 81% 30.02 in 10.0 mi East 4.6 mph - N/A   Overcast
9:53 AM 21.9 °F 15.7 °F 16.0 °F 78% 30.01 in 10.0 mi ENE 4.6 mph - N/A   Overcast
10:53 AM 21.9 °F - 17.1 °F 82% 30.01 in 10.0 mi Calm Calm - N/A   Overcast
11:53 AM 23.0 °F - 17.1 °F 78% 29.99 in 10.0 mi Calm Calm - N/A   Overcast
12:53 PM 23.0 °F 18.4 °F 17.1 °F 78% 29.99 in 10.0 mi East 3.5 mph - N/A   Overcast
1:53 PM 24.1 °F 18.2 °F 17.1 °F 75% 29.96 in 10.0 mi NE 4.6 mph - N/A   Overcast
2:23 PM 24.8 °F - 17.6 °F 74% 29.90 in 10.0 mi Calm Calm - N/A   Overcast
2:49 PM 24.8 °F 20.5 °F 17.6 °F 74% 29.91 in 10.0 mi ENE 3.5 mph - N/A   Mostly Cloudy
2:53 PM 24.1 °F - 17.1 °F 75% 29.96 in 10.0 mi Calm Calm - N/A   Mostly Cloudy
3:50 PM 24.8 °F 20.5 °F 17.6 °F 74% 29.90 in 10.0 mi NE 3.5 mph - N/A   Overcast
3:53 PM 24.1 °F 18.2 °F 17.1 °F 75% 29.95 in 10.0 mi NE 4.6 mph - N/A   Overcast
4:53 PM 24.1 °F 18.2 °F 17.1 °F 75% 29.96 in 10.0 mi NNE 4.6 mph - N/A   Overcast
5:53 PM 24.1 °F 18.2 °F 18.0 °F 77% 29.96 in 10.0 mi North 4.6 mph - N/A   Overcast
6:53 PM 23.0 °F 14.7 °F 18.0 °F 81% 29.99 in 10.0 mi North 6.9 mph - N/A   Overcast
7:53 PM 23.0 °F 14.7 °F 19.9 °F 88% 30.01 in 10.0 mi North 6.9 mph - N/A   Overcast
8:53 PM 23.0 °F 17.0 °F 19.9 °F 88% 30.04 in 8.0 mi North 4.6 mph - 0.00 in Snow Light Snow
9:53 PM 21.9 °F 15.7 °F 19.0 °F 89% 30.05 in 10.0 mi North 4.6 mph - 0.00 in   Overcast
10:53 PM 23.0 °F - 19.9 °F 88% 30.07 in 10.0 mi Calm Calm - N/A   Overcast
11:53 PM 21.9 °F 15.7 °F 19.9 °F 92% 30.08 in 10.0 mi NNW 4.6 mph - N/A   Overcast